TimeMDT,TemperatureF,Dew PointF,Humidity,Sea Level PressureIn,VisibilityMPH,Wind Direction,Wind SpeedMPH,Gust SpeedMPH,PrecipitationIn,Events,Conditions,WindDirDegrees,DateUTC
12:10 AM,26.6,23.0,86,30.16,7.0,North,8.1,-,N/A,,Overcast,10,2013-10-04 06:10:00
12:30 AM,26.6,23.0,86,30.16,9.0,North,6.9,-,N/A,,Overcast,10,2013-10-04 06:30:00
12:50 AM,26.6,23.0,86,30.17,10.0,NNE,6.9,-,N/A,,Overcast,20,2013-10-04 06:50:00
1:10 AM,26.6,23.0,86,30.18,10.0,NNE,11.5,16.1,N/A,,Overcast,20,2013-10-04 07:10:00
1:30 AM,26.6,23.0,86,30.19,10.0,North,10.4,-,N/A,,Overcast,10,2013-10-04 07:30:00
1:50 AM,26.6,23.0,86,30.19,10.0,North,11.5,18.4,N/A,,Overcast,10,2013-10-04 07:50:00
2:10 AM,26.6,23.0,86,30.20,10.0,NNE,11.5,18.4,N/A,,Overcast,20,2013-10-04 08:10:00
2:30 AM,26.6,23.0,86,30.21,10.0,NNE,9.2,-,N/A,,Overcast,20,2013-10-04 08:30:00
2:50 AM,26.6,23.0,86,30.21,10.0,North,9.2,-,N/A,,Overcast,10,2013-10-04 08:50:00
3:10 AM,26.6,23.0,86,30.21,10.0,NNE,11.5,-,N/A,,Overcast,20,2013-10-04 09:10:00
3:30 AM,26.6,23.0,86,30.22,10.0,NNE,11.5,18.4,N/A,,Overcast,20,2013-10-04 09:30:00
3:50 AM,26.6,23.0,86,30.23,10.0,NNE,10.4,-,N/A,,Overcast,20,2013-10-04 09:50:00
4:10 AM,26.6,23.0,86,30.23,10.0,NNE,8.1,16.1,N/A,,Overcast,20,2013-10-04 10:10:00
4:30 AM,26.6,23.0,86,30.24,10.0,NNE,12.7,16.1,N/A,,Overcast,20,2013-10-04 10:30:00
4:50 AM,26.6,23.0,86,30.25,10.0,NNE,10.4,17.3,N/A,,Overcast,20,2013-10-04 10:50:00
5:10 AM,26.6,23.0,86,30.26,10.0,NNE,9.2,18.4,N/A,,Overcast,20,2013-10-04 11:10:00
5:30 AM,26.6,23.0,86,30.27,10.0,North,8.1,-,N/A,,Overcast,10,2013-10-04 11:30:00
5:50 AM,26.6,23.0,86,30.27,10.0,North,11.5,17.3,N/A,,Overcast,10,2013-10-04 11:50:00
6:10 AM,26.6,23.0,86,30.28,10.0,North,8.1,18.4,N/A,,Overcast,10,2013-10-04 12:10:00
6:30 AM,26.6,23.0,86,30.28,10.0,NNE,11.5,17.3,N/A,,Overcast,20,2013-10-04 12:30:00
6:50 AM,26.6,23.0,86,30.29,10.0,North,11.5,18.4,N/A,,Overcast,10,2013-10-04 12:50:00
7:10 AM,26.6,23.0,86,30.30,10.0,North,8.1,-,N/A,,Overcast,10,2013-10-04 13:10:00
7:30 AM,26.6,23.0,86,30.30,10.0,NNE,10.4,-,N/A,,Overcast,20,2013-10-04 13:30:00
7:50 AM,26.6,23.0,86,30.31,10.0,NNE,11.5,-,N/A,,Mostly Cloudy,20,2013-10-04 13:50:00
8:10 AM,26.6,23.0,86,30.31,10.0,North,10.4,16.1,N/A,,Clear,10,2013-10-04 14:10:00
8:30 AM,26.6,23.0,86,30.32,10.0,NNE,11.5,-,N/A,,Clear,20,2013-10-04 14:30:00
8:50 AM,26.6,23.0,86,30.32,10.0,NNE,6.9,-,N/A,,Clear,20,2013-10-04 14:50:00
9:10 AM,28.4,24.8,86,30.33,10.0,North,5.8,-,N/A,,Clear,10,2013-10-04 15:10:00
9:30 AM,28.4,24.8,86,30.33,10.0,North,9.2,-,N/A,,Clear,360,2013-10-04 15:30:00
9:50 AM,28.4,24.8,86,30.34,10.0,NNE,6.9,-,N/A,,Clear,20,2013-10-04 15:50:00
10:10 AM,28.4,24.8,86,30.35,10.0,North,4.6,-,N/A,,Clear,360,2013-10-04 16:10:00
10:30 AM,28.4,24.8,86,30.35,10.0,North,9.2,-,N/A,,Clear,10,2013-10-04 16:30:00
10:50 AM,28.4,24.8,86,30.36,10.0,NNE,12.7,-,N/A,,Clear,30,2013-10-04 16:50:00
11:10 AM,32.0,26.6,80,30.36,10.0,NNE,11.5,-,N/A,,Partly Cloudy,30,2013-10-04 17:10:00
11:30 AM,32.0,26.6,80,30.37,10.0,North,11.5,17.3,N/A,,Mostly Cloudy,10,2013-10-04 17:30:00
11:50 AM,32.0,28.4,87,30.38,10.0,North,9.2,16.1,N/A,,Overcast,360,2013-10-04 17:50:00
12:10 PM,32.0,28.4,87,30.38,10.0,NNE,10.4,19.6,N/A,,Mostly Cloudy,20,2013-10-04 18:10:00
12:30 PM,32.0,28.4,87,30.38,10.0,North,11.5,21.9,N/A,,Partly Cloudy,360,2013-10-04 18:30:00
12:50 PM,32.0,28.4,87,30.39,10.0,NNW,6.9,18.4,N/A,,Scattered Clouds,340,2013-10-04 18:50:00
1:10 PM,32.0,28.4,87,30.38,10.0,North,6.9,-,N/A,,Partly Cloudy,350,2013-10-04 19:10:00
1:30 PM,33.8,30.2,87,30.37,10.0,NNE,9.2,-,N/A,,Clear,20,2013-10-04 19:30:00
1:50 PM,33.8,30.2,87,30.37,10.0,ENE,9.2,-,N/A,,Clear,60,2013-10-04 19:50:00
2:10 PM,35.6,32.0,87,30.36,10.0,NE,9.2,16.1,N/A,,Clear,50,2013-10-04 20:10:00
2:30 PM,35.6,32.0,87,30.35,10.0,East,4.6,-,N/A,,Clear,90,2013-10-04 20:30:00
2:50 PM,35.6,32.0,87,30.35,10.0,NE,6.9,-,N/A,,Clear,50,2013-10-04 20:50:00
3:10 PM,37.4,32.0,81,30.35,10.0,NNE,9.2,-,N/A,,Clear,30,2013-10-04 21:10:00
3:30 PM,37.4,32.0,81,30.36,10.0,NNE,5.8,-,N/A,,Scattered Clouds,30,2013-10-04 21:30:00
3:50 PM,37.4,32.0,81,30.35,10.0,East,5.8,-,N/A,,Overcast,80,2013-10-04 21:50:00
4:10 PM,37.4,32.0,81,30.35,10.0,ENE,8.1,-,N/A,,Mostly Cloudy,60,2013-10-04 22:10:00
4:30 PM,37.4,32.0,81,30.36,10.0,ENE,8.1,-,N/A,,Mostly Cloudy,60,2013-10-04 22:30:00
4:50 PM,37.4,32.0,81,30.37,10.0,NNE,6.9,-,N/A,,Scattered Clouds,20,2013-10-04 22:50:00
5:10 PM,37.4,32.0,81,30.37,10.0,NE,11.5,-,N/A,,Clear,40,2013-10-04 23:10:00
5:30 PM,35.6,32.0,87,30.37,10.0,NNE,5.8,-,N/A,,Clear,30,2013-10-04 23:30:00
5:50 PM,35.6,32.0,87,30.38,10.0,NNE,5.8,-,N/A,,Clear,20,2013-10-04 23:50:00
6:10 PM,37.4,32.0,81,30.38,10.0,NNE,4.6,-,N/A,,Partly Cloudy,20,2013-10-05 00:10:00
6:30 PM,35.6,32.0,87,30.38,10.0,NW,4.6,-,N/A,,Mostly Cloudy,310,2013-10-05 00:30:00
6:50 PM,33.8,30.2,87,30.38,10.0,West,3.5,-,N/A,,Scattered Clouds,270,2013-10-05 00:50:00
7:10 PM,32.0,28.4,87,30.39,10.0,Calm,Calm,-,N/A,,Clear,0,2013-10-05 01:10:00
7:30 PM,30.2,26.6,86,30.39,10.0,Calm,Calm,-,N/A,,Clear,0,2013-10-05 01:30:00
7:50 PM,28.4,24.8,86,30.39,10.0,NNW,4.6,-,N/A,,Clear,340,2013-10-05 01:50:00
8:10 PM,28.4,24.8,86,30.39,10.0,Calm,Calm,-,N/A,,Clear,0,2013-10-05 02:10:00
8:30 PM,28.4,24.8,86,30.40,10.0,Calm,Calm,-,N/A,,Clear,0,2013-10-05 02:30:00
8:50 PM,26.6,23.0,86,30.39,10.0,Calm,Calm,-,N/A,,Clear,0,2013-10-05 02:50:00
9:10 PM,26.6,23.0,86,30.40,10.0,Calm,Calm,-,N/A,,Clear,0,2013-10-05 03:10:00
9:30 PM,26.6,23.0,86,30.40,10.0,Calm,Calm,-,N/A,,Clear,0,2013-10-05 03:30:00
9:50 PM,24.8,23.0,93,30.40,10.0,Calm,Calm,-,N/A,,Clear,0,2013-10-05 03:50:00
10:10 PM,24.8,21.2,86,30.39,10.0,Calm,Calm,-,N/A,,Clear,0,2013-10-05 04:10:00
10:30 PM,24.8,21.2,86,30.39,10.0,SSW,3.5,-,N/A,,Clear,210,2013-10-05 04:30:00
10:50 PM,24.8,19.4,80,30.40,10.0,Calm,Calm,-,N/A,,Clear,0,2013-10-05 04:50:00
11:10 PM,23.0,19.4,86,30.41,10.0,Calm,Calm,-,N/A,,Clear,0,2013-10-05 05:10:00
11:30 PM,23.0,17.6,80,30.41,10.0,Calm,Calm,-,N/A,,Clear,0,2013-10-05 05:30:00
11:50 PM,24.8,19.4,80,30.41,10.0,Calm,Calm,-,N/A,,Clear,0,2013-10-05 05:50:00